Погода в Салтакъяле

Россия / Республика Марий Эл     56°42′28″N   48°55′35″E
В апреле 2022 года жителям России запретили посещать сайт meteo.paraplan.net по решению Генеральной прокуратуры. Аудитория сайта уменьшилась в 10 раз. Владельцы сайта не видят смысла в поддержке погодного сервера в таких условиях. Сайт будет закрыт в октябре.
темп.,
°C
ветер,
м/с
пор.,
м/с
влажн.,
%
обл.,
%
осадки,
мм/ч
давл.,
гПа
погр.,
м
4 октября, вт
вт400:00+12ю61454100 0.0 1019663
03:00+11ююв4105985 0.0 1020519
06:00+10ююв51253100 0.0 1021564
09:00+9ююв61263100 0.1 1022624
12:00+8ююв71575100 0.8 1024756
15:00+9ююв61578100 1.5 1024672
18:00+9ююв6155986 0.0 1024588
21:00+9ююв51455100 0.0 1023405
5 октября, ср
ср500:00+8ю61553100 0.0 1024598
03:00+7ююв61375100 0.8 1023557
06:00+7ююв71376100 0.1 1022728
09:00+7ююв61282100 0.1 1021655
12:00+9ю6128899 0.5 1020624
15:00+9ююв51181100 0.6 1020649
18:00+9ююв51172100 0.1 1019425
21:00+9ююв51373100 0.1 1018456
6 октября, чт
чт600:00+8ююв51079100 0.3 1016414
03:00+7ююв4897100 0.9 1015371
06:00+8юз389095 0.1 1014593
09:00+8юз4789100 0.3 1013569
12:00+9зюз457289 0.1 10131022
15:00+8зюз347779 0.4 1014783
18:00+6зюз379046 0.1 1015315
21:00+4зюз369826 0.1 1016155
7 октября, пт
пт700:00+6юз379599 0.1 1016280
03:00+6зюз4898100 0.2 1016313
06:00+5юз389717 0.1 1015234
09:00+7юз61175100 0.1 1014578
12:00+6ююз61287100 0.2 1013620
15:00+7зюз51296100 0.7 1013667
18:00+8з51191100 0.1 1014620
21:00+8з61388100 0.4 1015617
8 октября, сб
сб800:00+8з7138684 0.1 1016873
03:00+8з7138799 0.2 1017798
06:00+6з614913 0.0 1019553
09:00+8зсз6982100 0.0 1022760
12:00+10з687493 0.0 1022852
15:00+12з576789 0.0 1021987
18:00+8юз39905 0.0 1022177
21:00+7юз411935 0.0 1022240